"2010-06-12 00:00:00",193420,7.287,34.02,1.522,0.717,15.27,105.7691,14.04,15.09,81.5,0,110.2,13.46,14.84,356.0
"2010-06-12 00:00:30",193421,7.051,31.44,2.508,0.814,15.39,105.7561,14.01,15.06,81.4,0,110.2,13.46,14.81,353.4
"2010-06-12 00:01:00",193422,6.638,31.62,1.414,0.509,15.59,105.7585,14.01,15.02,80,0,110.2,13.47,14.82,353.6
"2010-06-12 00:01:30",193423,7.113,33.3,8.24,1.668,17.07,105.7567,14.01,15.16,80.3,0,110.2,13.43,14.81,355.3
"2010-06-12 00:02:00",193424,8.02,38.71,6.651,1.426,17.2,105.7582,14.01,15.08,81.6,0,110.2,13.43,14.81,0.7
"2010-06-12 00:02:30",193425,6.862,38.45,7.447,1.365,17.94,105.7588,14.02,15.16,82.6,0,110.2,13.43,14.82,0.5
"2010-06-12 00:03:00",193426,4.825,29.63,2.082,0.267,14.9,105.7428,13.97,15,83,0,110.2,13.46,14.77,351.6
"2010-06-12 00:03:30",193427,6.364,32.05,5.037,1.567,15.96,105.7291,13.94,14.94,83.1,0,110.2,13.43,14.74,354.0
"2010-06-12 00:04:00",193428,5.781,27.87,4.611,1.234,15.85,105.7294,13.94,15.08,83.5,0,110.2,13.43,14.74,349.9
"2010-06-12 00:04:30",193429,7.091,33.33,6.461,1.587,18.03,105.7202,13.92,15.06,84,0,110.2,13.43,14.72,355.3
"2010-06-12 00:05:00",193430,5.828,29.56,5.549,1.119,15.49,105.6993,13.86,14.93,83.1,0,110.2,13.43,14.66,351.6
"2010-06-12 00:05:30",193431,5.264,28.53,1.243,0.222,14.45,105.6976,13.86,14.81,80.8,0,110.2,13.47,14.66,350.5
"2010-06-12 00:06:00",193432,5.823,27.51,1.388,0.212,14.57,105.6884,13.83,14.78,80.1,0,110.2,13.47,14.64,349.5
"2010-06-12 00:06:30",193433,5.765,28.26,1.56,0.172,14.78,105.6765,13.8,14.76,79.8,0,110.2,13.47,14.60,350.3
"2010-06-12 00:07:00",193434,6.019,30.37,4.278,0.535,15.62,105.676,13.8,14.89,80.2,0,110.2,13.44,14.60,352.4
"2010-06-12 00:07:30",193435,7.739,38.82,6.643,1.286,18.22,105.6808,13.82,14.9,80.4,0,110.2,13.44,14.62,0.8
"2010-06-12 00:08:00",193436,7.776,37.29,6.938,1.301,17.72,105.6679,13.78,14.84,80.6,0,110.2,13.44,14.58,359.3
"2010-06-12 00:08:30",193437,5.964,27.77,1.182,0.25,14.7,105.6529,13.74,14.71,80.5,0,110.2,13.48,14.54,349.8
"2010-06-12 00:09:00",193438,6.19,27.62,0.959,0.283,14.49,105.6535,13.75,14.67,80.5,0,110.2,13.48,14.55,349.6
"2010-06-12 00:09:30",193439,7.963,36.49,6.695,1.19,17.32,105.6529,13.74,14.89,80.7,0,110.2,13.44,14.54,358.5
"2010-06-12 00:10:00",193440,8.46,35.69,6.321,1.367,17.91,105.6523,13.74,14.91,80.8,0,110.2,13.45,14.54,357.7
"2010-06-12 00:10:30",193441,7.093,28.02,2.677,0.57,14.82,105.6535,13.75,14.71,80.5,0,110.2,13.45,14.55,350.0
"2010-06-12 00:11:00",193442,6.679,26.14,0.897,0.155,14.47,105.6544,13.75,14.65,80.4,0,110.2,13.48,14.55,348.1
"2010-06-12 00:11:30",193443,6.902,24.91,0.815,0.162,14.76,105.6535,13.75,14.64,80.3,0,110.2,13.48,14.55,346.9
"2010-06-12 00:12:00",193444,6.831,26.18,1.054,0.196,15.14,105.6546,13.75,14.64,80.5,0,110.2,13.49,14.55,348.2
"2010-06-12 00:12:30",193445,7.74,28.95,6.314,1.23,16.35,105.6546,13.75,14.66,80.7,0,110.2,13.45,14.55,351.0
"2010-06-12 00:13:00",193446,8.56,35.46,6.316,1.229,18.55,105.6543,13.75,14.92,81.2,0,110.2,13.45,14.55,357.5
"2010-06-12 00:13:30",193447,7.62,29.07,5.759,1.016,15.92,105.6544,13.75,14.8,81.3,0,110.2,13.45,14.55,351.1
"2010-06-12 00:14:00",193448,7.911,29.71,6.076,1.139,16.25,105.6538,13.75,14.77,81.3,0,110.2,13.45,14.55,351.7
"2010-06-12 00:14:30",193449,7.606,27.32,5.132,0.833,15.33,105.6558,13.75,14.76,81.4,0,110.2,13.44,14.55,349.3
"2010-06-12 00:15:00",193450,8.98,33.58,6.739,1.218,17.05,105.6544,13.75,14.69,81.4,0,110.2,13.44,14.55,355.6
"2010-06-12 00:15:30",193451,7.859,28.82,6.112,1.029,15.87,105.655,13.75,14.82,81.7,0,110.2,13.44,14.55,350.8
"2010-06-12 00:16:00",193452,8.43,30.82,5.127,1.738,15.88,105.655,13.75,14.67,82,0,110.2,13.44,14.55,352.8
"2010-06-12 00:16:30",193453,7.755,29.73,0.992,0.517,14.6,105.6553,13.75,14.66,82.5,0,110.2,13.48,14.55,351.7
"2010-06-12 00:17:00",193454,10.24,37.62,7.168,1.642,16.65,105.6553,13.75,14.69,82.7,0,110.2,13.44,14.55,359.6
"2010-06-12 00:17:30",193455,10.83,39.45,6.619,1.266,17.94,105.6553,13.75,14.91,83.2,0,110.2,13.44,14.55,1.5
"2010-06-12 00:18:00",193456,10.83,37.45,6.627,1.249,17.84,105.6538,13.75,14.88,83.2,0,110.2,13.44,14.55,359.5
"2010-06-12 00:18:30",193457,9.5,35.05,6.892,1.474,16.42,105.6474,13.73,14.79,83,0,110.2,13.44,14.53,357.0
"2010-06-12 00:19:00",193458,12.16,38.99,7.275,1.748,16.55,105.6451,13.72,14.75,83.3,0,110.2,13.44,14.52,1.0
"2010-06-12 00:19:30",193459,12.67,38.98,5.748,1.189,15.92,105.642,13.72,14.82,83.8,0,110.2,13.45,14.52,1.0
"2010-06-12 00:20:00",193460,12.04,37.31,5.796,1.168,15.87,105.6366,13.7,14.67,84,0,110.2,13.45,14.50,359.3
"2010-06-12 00:20:30",193461,13.07,38.53,5.829,1.269,16.22,105.6259,13.67,14.79,84.2,0,110.2,13.45,14.47,0.5
"2010-06-12 00:21:00",193462,14.88,47.71,6.873,1.186,18.35,105.6214,13.66,14.93,84.6,0,110.2,13.45,14.46,9.7
"2010-06-12 00:21:30",193463,15.17,47.41,5.432,1.011,18.55,105.6214,13.66,14.84,84.6,0,110.2,13.46,14.46,9.4
"2010-06-12 00:22:00",193464,14.51,45.24,6.527,1.276,17.38,105.6214,13.66,14.91,84.6,0,110.2,13.46,14.46,7.2
"2010-06-12 00:22:30",193465,15.28,46.69,5.852,1.159,17.62,105.6191,13.66,14.91,84.4,0,110.2,13.46,14.46,8.7
"2010-06-12 00:23:00",193466,14.73,45.44,6.042,1.586,15.56,105.5946,13.59,14.62,83.7,0,110.2,13.46,14.39,7.4
"2010-06-12 00:23:30",193467,14.55,47.77,5.853,1.206,16.94,105.5894,13.58,14.76,83.1,0,110.2,13.46,14.38,9.8
"2010-06-12 00:24:00",193468,14.16,47.05,6.621,1.21,16.61,105.5773,13.55,14.69,81.4,0,110.2,13.46,14.35,9.0
"2010-06-12 00:24:30",193469,15.08,48.19,7.002,1.314,17.04,105.5838,13.57,14.64,80.4,0,110.2,13.46,14.37,10.2
"2010-06-12 00:25:00",193470,15.67,54.68,4.156,1.08,19.21,105.5845,13.57,14.75,81.2,0,110.1,13.46,14.37,16.7
"2010-06-12 00:25:30",193471,14.96,50.23,6.562,1.32,17.7,105.5587,13.5,14.68,80.9,0,110.1,13.46,14.30,12.2
"2010-06-12 00:26:00",193472,13.94,45.66,4.866,0.867,15.96,105.5555,13.49,14.65,80.7,0,110.1,13.46,14.29,7.7
"2010-06-12 00:26:30",193473,14.3,48.86,6.673,1.31,16.76,105.5555,13.49,14.64,81.1,0,110.1,13.46,14.29,10.9
"2010-06-12 00:27:00",193474,13.55,45.64,4.363,0.99,14.95,105.553,13.49,14.53,81.3,0,110.1,13.46,14.29,7.6
"2010-06-12 00:27:30",193475,14.51,49.38,6.605,1.308,17.01,105.5434,13.46,14.53,81.4,0,110.1,13.46,14.26,11.4
"2010-06-12 00:28:00",193476,14.84,51.65,7.096,1.39,17.86,105.533,13.44,14.62,81.5,0,110.1,13.46,14.24,13.7
"2010-06-12 00:28:30",193477,15.31,53.72,6.182,1.137,18.34,105.5222,13.41,14.67,82.1,0,110.1,13.46,14.21,15.7
"2010-06-12 00:29:00",193478,15.43,53.59,6.152,1.211,18.06,105.5217,13.41,14.57,82.4,0,110.1,13.46,14.21,15.6
"2010-06-12 00:29:30",193479,13.48,46.86,4.784,0.815,15.41,105.5217,13.41,14.55,82.4,0,110.1,13.46,14.21,8.9
"2010-06-12 00:30:00",193480,14.68,53.19,6.189,1.308,17.6,105.5217,13.41,14.47,82.7,0,110.1,13.45,14.21,15.2
"2010-06-12 00:30:30",193481,12.73,47.69,6.45,0.725,16.05,105.5217,13.41,14.57,83.5,0,110.1,13.45,14.21,9.7
"2010-06-12 00:31:00",193482,12.74,51.92,6.227,1.276,16.7,105.5217,13.41,14.46,84.3,0,110.1,13.45,14.21,13.9
"2010-06-12 00:31:30",193483,13.28,48.61,6.879,1.446,17.5,105.5126,13.38,14.62,85.4,0,110.1,13.45,14.18,10.6
"2010-06-12 00:32:00",193484,13.35,50.44,6.169,1.412,17.84,105.4898,13.33,14.58,85.8,0,110.1,13.45,14.12,12.4
"2010-06-12 00:32:30",193485,10.79,41.87,5.045,1.297,14.8,105.4878,13.32,14.42,86.1,0,110.1,13.46,14.12,3.9
"2010-06-12 00:33:00",193486,10.66,44,6.163,1.427,16.32,105.4822,13.31,14.41,86.6,0,110.1,13.46,14.11,6.0
"2010-06-12 00:33:30",193487,8.72,38.81,5.378,0.965,15.4,105.4539,13.23,14.46,87.1,0,110.1,13.46,14.03,0.8
"2010-06-12 00:34:00",193488,7.657,33.63,11.04,1.936,15.13,105.4418,13.2,14.27,87.5,0,110.2,13.46,14.00,355.6
"2010-06-12 00:34:30",193489,6.93,35.16,5.955,1.091,15.19,105.42,13.15,14.35,88.1,0,110.2,13.46,13.95,357.2
"2010-06-12 00:35:00",193490,6.688,36.7,8.53,1.423,16.33,105.4006,13.1,14.29,88.7,0,110.1,13.46,13.90,358.7
"2010-06-12 00:35:30",193491,8.26,32.6,6.676,1.068,18.28,105.3856,13.06,14.34,89.2,0,110.2,13.46,13.86,354.6
"2010-06-12 00:36:00",193492,5.984,28.09,5.707,1.114,15.55,105.3625,13,14.22,89.4,0,110.2,13.47,13.80,350.1
"2010-06-12 00:36:30",193493,5.76,22.91,6.991,1.497,15.16,105.3523,12.97,14.12,89.7,0,110.2,13.46,13.77,344.9
"2010-06-12 00:37:00",193494,6.645,27.85,4.841,1.744,15.19,105.352,12.97,14,89.9,0,110.2,13.46,13.77,349.9
"2010-06-12 00:37:30",193495,7.29,30.51,7.233,1.498,16.43,105.3416,12.95,14.08,90.3,0,110.2,13.47,13.74,352.5
"2010-06-12 00:38:00",193496,5.737,25.25,1.702,0.314,13.96,105.326,12.91,13.94,90.4,0,110.2,13.5,13.70,347.2
"2010-06-12 00:38:30",193497,7.341,30.28,7.137,1.425,16.59,105.3238,12.9,13.98,90.6,0,110.2,13.47,13.70,352.3
"2010-06-12 00:39:00",193498,7.007,27.65,8.16,1.318,15.54,105.3184,12.89,14.09,90.8,0,110.2,13.47,13.68,349.6
"2010-06-12 00:39:30",193499,8.08,34.02,6.508,1.125,18.26,105.3193,12.89,14.06,90.8,0,110.2,13.47,13.69,356.0
"2010-06-12 00:40:00",193500,8.2,34.57,7.854,1.542,16.84,105.3196,12.89,13.98,90.9,0,110.2,13.47,13.69,356.6
"2010-06-12 00:40:30",193501,6.614,29.15,2.834,0.859,14.01,105.3207,12.89,13.85,90.8,0,110.2,13.5,13.69,351.1
"2010-06-12 00:41:00",193502,6.552,30.5,3.761,1.067,14.53,105.3204,12.89,13.88,90.9,0,110.2,13.47,13.69,352.5
"2010-06-12 00:41:30",193503,8.52,37.71,6.287,1.405,16.75,105.321,12.89,13.97,91.1,0,110.2,13.46,13.69,359.7
"2010-06-12 00:42:00",193504,7.825,34.7,2.705,0.845,14.67,105.3221,12.9,13.84,91.1,0,110.2,13.5,13.69,356.7
"2010-06-12 00:42:30",193505,8.83,42.72,6.517,1.052,16.96,105.3196,12.89,13.98,91.3,0,110.2,13.46,13.69,4.7
"2010-06-12 00:43:00",193506,10.27,48.16,7.547,1.668,18.53,105.319,12.89,14.07,91.5,0,110.2,13.46,13.69,10.2
"2010-06-12 00:43:30",193507,11.29,52.54,5.629,1.086,16.18,105.3184,12.89,14.1,91.6,0,110.2,13.46,13.68,14.5
"2010-06-12 00:44:00",193508,10.65,51.11,6.571,1.331,17.86,105.3184,12.89,14.02,91.6,0,110.2,13.46,13.68,13.1
"2010-06-12 00:44:30",193509,11.44,48.34,6.713,1.62,12.61,105.3184,12.89,13.98,91.7,0,110.2,13.46,13.68,10.3
"2010-06-12 00:45:00",193510,11.84,44.13,3.816,0.756,16.31,105.3184,12.89,13.91,91.7,0,110.2,13.46,13.68,6.1
"2010-06-12 00:45:30",193511,13.86,52.9,5.958,1.35,17.13,105.3181,12.89,14.05,91.8,0,110.2,13.46,13.68,14.9
"2010-06-12 00:46:00",193512,15.23,60.06,3.05,0.848,20.74,105.3066,12.86,14.12,91.8,0,110.2,13.46,13.65,22.1
"2010-06-12 00:46:30",193513,14.76,56.57,4.736,0.797,15,105.2871,12.81,14.09,91.7,0,110.2,13.46,13.60,18.6
"2010-06-12 00:47:00",193514,14.33,56.43,3.9,0.662,20.06,105.2845,12.8,14.07,91.7,0,110.2,13.46,13.60,18.4
"2010-06-12 00:47:30",193515,14.17,54.2,4.313,0.8,20.28,105.2845,12.8,14.08,91.7,0,110.2,13.46,13.60,16.2
"2010-06-12 00:48:00",193516,15.58,53.04,4.695,1.084,20.53,105.2845,12.8,14.08,91.9,0,110.2,13.46,13.60,15.0
"2010-06-12 00:48:30",193517,16.4,55.26,4.771,1.119,19.35,105.2845,12.8,14.07,91.8,0,110.2,13.46,13.60,17.3
"2010-06-12 00:49:00",193518,16.41,54.38,4.337,0.745,19.59,105.2845,12.8,14.07,91.6,0,110.2,13.46,13.60,16.4
"2010-06-12 00:49:30",193519,15.42,51.61,5.08,0.835,13.79,105.2809,12.79,14.02,91.4,0,110.1,13.46,13.59,13.6
"2010-06-12 00:50:00",193520,11.34,41.61,6.856,2.188,15.36,105.2789,12.79,13.73,91.1,0,110.1,13.46,13.58,3.6
"2010-06-12 00:50:30",193521,11.12,40.06,4.517,1.722,11.81,105.2783,12.78,13.72,91.2,0,110.1,13.5,13.58,2.1
"2010-06-12 00:51:00",193522,9.33,36.37,3.185,0.949,14.28,105.2837,12.8,13.74,91.4,0,110.2,13.5,13.60,358.4
"2010-06-12 00:51:30",193523,9.65,34.7,1.984,1.012,14.69,105.2845,12.8,13.83,91.6,0,110.1,13.51,13.60,356.7
"2010-06-12 00:52:00",193524,11.19,46.95,7.016,1.451,18.78,105.2845,12.8,14.01,91.9,0,110.1,13.48,13.60,9.0
"2010-06-12 00:52:30",193525,11.37,49.67,5.524,0.96,18.95,105.2845,12.8,14.03,92.1,0,110.1,13.48,13.60,11.7
"2010-06-12 00:53:00",193526,11.05,44.49,7.823,1.624,18.51,105.2845,12.8,14.05,92.3,0,110.1,13.48,13.60,6.5
"2010-06-12 00:53:30",193527,9.51,39.07,5.073,0.994,15.98,105.2834,12.8,13.86,92.2,0,110.1,13.48,13.59,1.1
"2010-06-12 00:54:00",193528,10,36.23,5.118,1.539,13.96,105.2789,12.79,13.75,92.2,0,110.1,13.51,13.58,358.2
"2010-06-12 00:54:30",193529,7.374,27.87,2.694,0.699,13.58,105.2752,12.78,13.75,92.2,0,110.1,13.51,13.57,349.9
"2010-06-12 00:55:00",193530,9.77,37.22,3.052,0.799,14.07,105.2758,12.78,13.75,92.4,0,110.1,13.51,13.58,359.2
"2010-06-12 00:55:30",193531,11.4,39.54,5.691,1.471,16.28,105.2679,12.76,13.93,92.7,0,110.2,13.48,13.55,1.5
"2010-06-12 00:56:00",193532,9.67,39.28,6.234,1.089,18.2,105.2648,12.75,13.92,92.7,0,110.1,13.48,13.55,1.3
"2010-06-12 00:56:30",193533,11.13,44.65,6.192,1.762,18.12,105.2625,12.74,13.99,92.8,0,110.2,13.48,13.54,6.7
"2010-06-12 00:57:00",193534,11.85,46.14,6.616,1.791,17.9,105.2594,12.74,13.98,92.9,0,110.1,13.48,13.53,8.1
"2010-06-12 00:57:30",193535,9.09,37.17,4.823,1.412,14.41,105.2518,12.72,13.81,92.8,0,110.1,13.48,13.51,359.2
"2010-06-12 00:58:00",193536,9.32,38.25,2.716,0.752,13.72,105.2507,12.71,13.7,92.7,0,110.1,13.51,13.51,0.2
"2010-06-12 00:58:30",193537,9.7,44.53,2.191,0.369,14.02,105.2507,12.71,13.71,92.8,0,110.2,13.51,13.51,6.5
"2010-06-12 00:59:00",193538,9.96,49.5,6.89,0.81,15.92,105.2507,12.71,13.89,93.1,0,110.2,13.48,13.51,11.5
"2010-06-12 00:59:30",193539,10.29,59.61,7.085,1.119,18.1,105.251,12.71,13.94,93.2,0,110.2,13.48,13.51,21.6
"2010-06-12 01:00:00",193540,9.84,50.2,5.244,1.483,15.2,105.2507,12.71,13.82,93.3,0,110.2,13.47,13.51,12.2
"2010-06-12 01:00:30",193541,11.76,56.45,5.361,1.543,17.77,105.2507,12.71,13.95,93.5,0,110.2,13.47,13.51,18.5
"2010-06-12 01:01:00",193542,12.53,54.01,6.998,1.297,16.86,105.2507,12.71,13.86,93.4,0,110.2,13.47,13.51,16.0
"2010-06-12 01:01:30",193543,10.46,48.73,2.69,0.505,13.59,105.2462,12.7,13.67,93.1,0,110.2,13.51,13.50,10.7
"2010-06-12 01:02:00",193544,9.99,49.4,3.257,0.559,13.8,105.2436,12.7,13.74,93.3,0,110.2,13.51,13.49,11.4
"2010-06-12 01:02:30",193545,11.03,63.38,6.354,1.254,17.33,105.2414,12.69,13.83,93.4,0,110.2,13.47,13.49,25.4
"2010-06-12 01:03:00",193546,10.86,67.49,10.01,1.274,17.51,105.2298,12.66,13.88,93.6,0,110.2,13.47,13.46,29.5
"2010-06-12 01:03:30",193547,9.76,63.45,5.777,1.396,16.88,105.2239,12.65,13.82,93.7,0,110.2,13.47,13.44,25.5
"2010-06-12 01:04:00",193548,13,62.15,5.799,1.445,17.82,105.2193,12.63,13.86,93.8,0,110.2,13.47,13.43,24.2
"2010-06-12 01:04:30",193549,13.94,59.88,7.99,1.582,16.48,105.2126,12.62,13.79,93.6,0,110.2,13.46,13.41,21.9
"2010-06-12 01:05:00",193550,10.82,49.82,2.248,0.87,13.63,105.2021,12.59,13.58,93.4,0,110.2,13.5,13.39,11.8
"2010-06-12 01:05:30",193551,9.47,59.42,6.63,1.527,15.68,105.2086,12.61,13.72,93.6,0,110.1,13.47,13.40,21.4
"2010-06-12 01:06:00",193552,10.67,60.15,4.968,2.059,15.24,105.2168,12.63,13.77,93.9,0,110.2,13.47,13.42,22.2
"2010-06-12 01:06:30",193553,12.09,53.55,5.202,1.032,15.15,105.1894,12.56,13.75,94,0,110.2,13.47,13.35,15.5
"2010-06-12 01:07:00",193554,12.56,55.37,7.937,1.373,15.85,105.1829,12.54,13.62,93.6,0,110.2,13.47,13.34,17.4
"2010-06-12 01:07:30",193555,13.45,56.96,7.92,1.336,16.37,105.179,12.53,13.71,93.7,0,110.1,13.47,13.33,19.0
"2010-06-12 01:08:00",193556,13.73,58.48,6.735,1.473,17.31,105.1674,12.5,13.69,93.6,0,110.1,13.47,13.30,20.5
"2010-06-12 01:08:30",193557,14.21,64.62,6.68,1.174,17.34,105.1521,12.46,13.66,93.6,0,110.1,13.48,13.26,26.6
"2010-06-12 01:09:00",193558,13.57,56.45,6.289,1.42,14.59,105.149,12.45,13.49,93.4,0,110.1,13.48,13.25,18.5
"2010-06-12 01:09:30",193559,12.57,54.29,1.544,0.251,13.81,105.149,12.45,13.44,93.4,0,110.1,13.51,13.25,16.3
"2010-06-12 01:10:00",193560,12.78,57.21,5.419,1.087,14.98,105.149,12.45,13.57,93.4,0,110.1,13.48,13.25,19.2
"2010-06-12 01:10:30",193561,14.35,64.35,7.053,1.367,16.98,105.149,12.45,13.52,93.3,0,110.1,13.48,13.25,26.3
"2010-06-12 01:11:00",193562,14.38,62.07,7.094,1.397,16.76,105.149,12.45,13.57,93.3,0,110.1,13.49,13.25,24.1
"2010-06-12 01:11:30",193563,15.51,67.01,5.478,1.167,17.84,105.149,12.45,13.61,93.2,0,110.1,13.49,13.25,29.0
"2010-06-12 01:12:00",193564,15.68,66.21,5.255,1.141,17.58,105.149,12.45,13.56,93,0,110.1,13.48,13.25,28.2
"2010-06-12 01:12:30",193565,14.72,61.57,6.082,1.338,15.28,105.149,12.45,13.39,92.6,0,110.1,13.48,13.25,23.6
"2010-06-12 01:13:00",193566,14,54.9,0.622,0.155,13.49,105.149,12.45,13.32,92.4,0,110.1,13.51,13.25,16.9
"2010-06-12 01:13:30",193567,15.01,60.99,6.68,1.256,16.26,105.149,12.45,13.47,92.3,0,110.1,13.48,13.25,23.0
"2010-06-12 01:14:00",193568,14.85,58.82,5.675,1.342,15.25,105.149,12.45,13.39,92,0,110.1,13.48,13.25,20.8
"2010-06-12 01:14:30",193569,15.62,59.11,6.79,1.199,17.49,105.149,12.45,13.56,92.1,0,110.1,13.48,13.25,21.1
"2010-06-12 01:15:00",193570,15.88,63.62,4.676,0.707,18.58,105.149,12.45,13.66,92.1,0,110.1,13.48,13.25,25.6
"2010-06-12 01:15:30",193571,15.12,57.43,5.913,1.287,17,105.149,12.45,13.59,92,0,110.1,13.48,13.25,19.4
"2010-06-12 01:16:00",193572,14.54,55.62,5.912,1.511,15.15,105.149,12.45,13.47,91.8,0,110.1,13.48,13.25,17.6
"2010-06-12 01:16:30",193573,12.99,49.64,1.855,0.529,13.29,105.149,12.45,13.37,91.7,0,110.1,13.51,13.25,11.6
"2010-06-12 01:17:00",193574,13.54,51.6,1.239,0.369,13.87,105.149,12.45,13.49,91.8,0,110.1,13.51,13.25,13.6
"2010-06-12 01:17:30",193575,15.16,61.53,5.521,1.217,17.8,105.149,12.45,13.65,91.9,0,110.1,13.48,13.25,23.5
"2010-06-12 01:18:00",193576,15.48,59.77,5.382,0.73,17.96,105.1493,12.45,13.66,91.9,0,110.1,13.48,13.25,21.8
"2010-06-12 01:18:30",193577,15,58.96,4.37,0.84,18.33,105.149,12.45,13.74,92,0,110.1,13.48,13.25,21.0
"2010-06-12 01:19:00",193578,14.73,61.02,5.609,1.244,17.15,105.1493,12.45,13.68,92,0,110.1,13.47,13.25,23.0
"2010-06-12 01:19:30",193579,12.17,53.16,3.717,1.116,13.51,105.1505,12.46,13.48,91.9,0,110.1,13.47,13.25,15.2
"2010-06-12 01:20:00",193580,12.33,55.34,0.654,0.347,13.25,105.1508,12.46,13.42,91.8,0,110.1,13.51,13.25,17.3
"2010-06-12 01:20:30",193581,13.69,59.36,5.284,1.209,15.88,105.145,12.44,13.59,92,0,110.1,13.47,13.24,21.4
"2010-06-12 01:21:00",193582,13.89,57.66,6.067,1.045,15.91,105.129,12.4,13.55,92,0,110.1,13.47,13.20,19.7
"2010-06-12 01:21:30",193583,14.21,63.19,6.089,0.949,17.97,105.1256,12.39,13.68,92.2,0,110.1,13.47,13.19,25.2
"2010-06-12 01:22:00",193584,13.2,64.22,6.086,1.224,17.56,105.1243,12.39,13.7,92.4,0,110.1,13.47,13.19,26.2
"2010-06-12 01:22:30",193585,11.67,64.3,6.23,1.074,16.13,105.1217,12.38,13.66,92.4,0,110.1,13.47,13.18,26.3
"2010-06-12 01:23:00",193586,13.23,63.45,7.025,1.121,15.19,105.1217,12.38,13.5,92.5,0,110.1,13.47,13.18,25.5
"2010-06-12 01:23:30",193587,13.09,58.65,2.587,0.662,13.14,105.1276,12.4,13.39,92.4,0,110.1,13.51,13.19,20.7
"2010-06-12 01:24:00",193588,13.93,57.01,5.954,1.014,14.56,105.1191,12.38,13.51,92.5,0,110.1,13.48,13.17,19.0
"2010-06-12 01:24:30",193589,15.27,62.68,6.261,1.091,17.13,105.1082,12.35,13.59,92.6,0,110.1,13.48,13.14,24.7
"2010-06-12 01:25:00",193590,14.31,67.77,4.84,1.093,18.11,105.1044,12.34,13.62,92.6,0,110.1,13.49,13.13,29.8
"2010-06-12 01:25:30",193591,14.66,69.48,4.277,1.338,17.88,105.1012,12.33,13.63,92.8,0,110.1,13.49,13.13,31.5
"2010-06-12 01:26:00",193592,15.74,61.37,7.107,1.267,15.11,105.1092,12.35,13.53,92.8,0,110.1,13.49,13.15,23.4
"2010-06-12 01:26:30",193593,15.05,64.95,4.458,1.509,15.28,105.0933,12.31,13.34,92.5,0,110.1,13.49,13.11,26.9
"2010-06-12 01:27:00",193594,14.14,62.8,3.862,0.967,13.31,105.0832,12.29,13.26,92.5,0,110.1,13.49,13.08,24.8
"2010-06-12 01:27:30",193595,13.45,61.85,3.344,0.443,14.51,105.0821,12.28,13.4,92.6,0,110.1,13.52,13.08,23.8
"2010-06-12 01:28:00",193596,15.39,70.49,4.683,1.302,18.3,105.0815,12.28,13.51,92.9,0,110.1,13.49,13.08,32.5
"2010-06-12 01:28:30",193597,14.94,68.19,4.492,1.079,18.4,105.0773,12.27,13.52,93,0,110.1,13.49,13.07,30.2
"2010-06-12 01:29:00",193598,14.22,64.66,7.038,0.913,16.47,105.0621,12.23,13.43,92.9,0,110.1,13.49,13.03,26.7
"2010-06-12 01:29:30",193599,14.04,62.19,7,1.123,15.27,105.0491,12.2,13.34,92.9,0,110.1,13.49,12.99,24.2
"2010-06-12 01:30:00",193600,13.18,54.06,0.961,0.351,12.93,105.0347,12.16,13.15,92.6,0,110.1,13.52,12.96,16.1
"2010-06-12 01:30:30",193601,13.14,54.41,0.601,0.186,13.22,105.0153,12.11,13.11,92.6,0,110.1,13.49,12.91,16.4
"2010-06-12 01:31:00",193602,14.24,60.55,6.273,1.417,15.76,105.0153,12.11,13.26,92.8,0,110.1,13.5,12.91,22.5
"2010-06-12 01:31:30",193603,14.82,63.5,5.071,0.973,17.63,105.0045,12.08,13.35,92.9,0,110.1,13.5,12.88,25.5
"2010-06-12 01:32:00",193604,14.98,63.98,4.647,0.801,17.65,104.9816,12.03,13.32,92.9,0,110.1,13.5,12.82,26.0
"2010-06-12 01:32:30",193605,14.26,62.01,5.463,1.104,16.65,104.9814,12.02,13.23,92.9,0,110.1,13.49,12.82,24.0
"2010-06-12 01:33:00",193606,12.91,54.81,5.714,1.028,14.27,104.9814,12.02,13.16,93,0,110.1,13.5,12.82,16.8
"2010-06-12 01:33:30",193607,12.04,51.03,1,0.176,12.88,104.9814,12.02,13.01,92.9,0,110.1,13.53,12.82,13.0
"2010-06-12 01:34:00",193608,13.6,59.31,6.806,1.351,15.46,104.9814,12.02,13.05,93,0,110.1,13.5,12.82,21.3
"2010-06-12 01:34:30",193609,14.13,60.73,5.449,1.38,17.13,104.9814,12.02,13.25,93.3,0,110.1,13.5,12.82,22.7
"2010-06-12 01:35:00",193610,13.81,59.87,5.795,1.176,17.53,104.9814,12.02,13.27,93.4,0,110.1,13.49,12.82,21.9
"2010-06-12 01:35:30",193611,13.03,54.93,6.527,1.455,16.01,104.9814,12.02,13.2,93.4,0,110.1,13.49,12.82,16.9
"2010-06-12 01:36:00",193612,13.99,57.61,6.958,1.466,16.53,104.9814,12.02,13.22,93.5,0,110.1,13.49,12.82,19.6
"2010-06-12 01:36:30",193613,13.03,53.02,7.249,1.224,14.52,104.9814,12.02,13,93.3,0,110.1,13.49,12.82,15.0
"2010-06-12 01:37:00",193614,12.12,49.16,3.583,0.673,13.35,104.9814,12.02,13.05,93.4,0,110.1,13.48,12.82,11.2
"2010-06-12 01:37:30",193615,13.17,56.45,6.676,1.238,16.74,104.9814,12.02,13.22,93.6,0,110.1,13.49,12.82,18.5
"2010-06-12 01:38:00",193616,12.77,55.3,6.334,1.379,16.48,104.9814,12.02,13.16,93.7,0,110.1,13.48,12.82,17.3
"2010-06-12 01:38:30",193617,12.74,46.37,6.083,0.87,14.53,104.9814,12.02,13.06,93.7,0,110.1,13.48,12.82,8.4
"2010-06-12 01:39:00",193618,13.13,55.43,7.371,1.242,16.46,104.9785,12.02,13.22,93.8,0,110.1,13.48,12.81,17.4
"2010-06-12 01:39:30",193619,12.46,47.73,5.568,0.942,13.95,104.9723,12,13.06,93.7,0,110.1,13.48,12.80,9.7
"2010-06-12 01:40:00",193620,13.58,51.47,6.571,1.472,15.98,104.9647,11.98,13.14,93.8,0,110.1,13.48,12.78,13.5
"2010-06-12 01:40:30",193621,13.65,53.24,6.878,1.381,15.85,104.9568,11.96,13.11,93.8,0,110.1,13.49,12.76,15.2
"2010-06-12 01:41:00",193622,11.05,41.13,7.34,1.82,15.03,104.9528,11.95,13.12,93.8,0,110.1,13.49,12.75,3.1
"2010-06-12 01:41:30",193623,11.01,42.4,5.939,1.562,15.45,104.9551,11.96,13.1,93.9,0,110.1,13.49,12.75,4.4
"2010-06-12 01:42:00",193624,11.67,41.22,5.293,1.133,15.65,104.9528,11.95,13.11,94,0,110.1,13.49,12.75,3.2
"2010-06-12 01:42:30",193625,11.16,40.47,5.178,0.954,14.97,104.9475,11.94,13.11,94.1,0,110.1,13.49,12.73,2.5
"2010-06-12 01:43:00",193626,12.17,49.42,6.197,1.367,16.02,104.948,11.94,13.11,94.1,0,110.1,13.5,12.73,11.4
"2010-06-12 01:43:30",193627,12.8,51.09,5.913,1.892,16.3,104.9475,11.94,13.1,94.2,0,110.1,13.5,12.73,13.1
"2010-06-12 01:44:00",193628,13.09,44.11,6.239,1.217,15.52,104.9475,11.94,13.15,94.3,0,110.1,13.5,12.73,6.1
"2010-06-12 01:44:30",193629,13.33,45.29,6.472,1.334,15.15,104.9475,11.94,13.1,94.3,0,110.1,13.5,12.73,7.3
"2010-06-12 01:45:00",193630,13.26,45.55,6.756,1.269,14.91,104.9475,11.94,13.01,94.2,0,110.1,13.5,12.73,7.5
"2010-06-12 01:45:30",193631,14.08,47.77,7.115,1.29,17.04,104.9463,11.94,13.16,94.4,0,110.1,13.5,12.73,9.8
"2010-06-12 01:46:00",193632,13.96,46.35,6.653,1.299,16.1,104.9381,11.91,13.08,94.3,0,110.1,13.5,12.71,8.3
"2010-06-12 01:46:30",193633,13.55,45.83,6.145,1.373,16,104.9266,11.88,13.04,94.3,0,110.1,13.5,12.68,7.8
"2010-06-12 01:47:00",193634,14.19,48.5,6.602,1.324,16.55,104.9136,11.85,13.09,94.4,0,110.1,13.5,12.64,10.5
"2010-06-12 01:47:30",193635,14.62,49.22,6.783,1.075,15.54,104.9136,11.85,13,94.2,0,110.1,13.5,12.64,11.2
"2010-06-12 01:48:00",193636,13.57,45.35,6.875,1.432,15.23,104.9127,11.85,12.98,94.1,0,110.1,13.5,12.64,7.3
"2010-06-12 01:48:30",193637,13.42,47.92,6.628,1.512,16.16,104.913,11.85,13.03,94.2,0,110.2,13.5,12.64,9.9
"2010-06-12 01:49:00",193638,13.06,46.92,6.012,1.221,16.46,104.9136,11.85,13.06,94.3,0,110.1,13.5,12.64,8.9
"2010-06-12 01:49:30",193639,13.27,46.9,7.825,2.061,16.21,104.9099,11.84,12.98,94.3,0,110.1,13.5,12.64,8.9